Theta_e
307 307 308 309 310 311 311 313 314 315 315 314 313 311 312 311 311 316 317 318 320 317 317 319 318 320 320 320 322 323 326 328 327 330 332 329 329 331 332 336 337 336 345 352 352 350 350 350 348 347 346 346 347 346 346 346 345 344 344 343 343 344 343 342 342 342 342 340 339 338 337 337 337 338 339 339 339 339 339 339 337 337 337 337 337 337
307 307 308 308 309 311 311 312 313 315 315 313 312 311 311 311 312 317 317 317 319 317 316 319 318 319 319 320 321 322 323 327 329 330 332 330 330 334 333 336 336 336 349 354 349 346 349 349 348 347 346 346 347 347 346 346 346 345 345 344 344 344 342 342 342 342 341 339 338 337 336 336 337 338 338 338 339 338 338 338 337 337 337 336 336 336
308 308 308 309 309 310 310 311 312 313 314 313 313 311 309 311 313 315 316 318 318 317 316 318 317 318 320 320 320 322 322 326 330 331 332 331 330 332 332 335 334 336 350 348 342 343 348 349 348 347 347 346 347 347 346 346 346 345 345 344 344 342 342 343 341 341 341 338 338 337 336 335 336 337 338 338 338 338 337 337 337 337 336 336 336 335
307 308 308 309 309 310 310 311 311 311 312 313 313 310 309 312 311 310 314 318 319 317 317 318 317 317 320 321 319 321 321 323 330 333 334 331 330 331 330 334 333 338 349 345 343 347 350 348 348 348 347 347 347 348 346 346 346 345 344 343 343 342 341 342 341 341 340 338 337 336 336 336 337 337 337 337 336 336 336 336 336 335 335 334 334 333
306 309 309 309 309 310 310 310 311 310 311 312 313 311 311 313 311 311 315 317 317 317 318 318 314 314 319 320 319 320 320 321 325 330 333 331 330 330 330 335 333 337 348 347 348 351 350 348 348 347 347 347 347 347 346 347 346 344 343 341 342 343 341 342 341 340 339 338 338 337 337 337 337 336 336 335 335 334 334 334 334 333 333 332 332 331
305 307 309 310 309 310 310 310 311 311 311 311 313 314 313 313 314 314 315 315 312 312 316 316 310 310 317 318 319 320 320 321 322 325 330 330 329 329 330 335 334 336 346 349 350 350 349 349 348 347 347 346 347 347 346 346 345 343 343 341 342 343 341 341 341 340 339 338 339 338 337 337 336 335 335 335 335 333 333 333 332 331 331 330 330 330
306 306 308 309 310 310 310 310 310 311 311 311 313 314 313 315 315 314 314 312 308 308 315 317 311 309 313 315 320 321 320 321 321 323 327 330 328 327 330 333 336 340 346 349 350 349 349 349 347 346 346 346 346 346 345 346 344 342 342 341 341 341 341 340 340 340 339 338 338 338 337 337 336 335 335 336 335 333 333 332 331 330 330 330 330 329
306 306 306 308 310 310 310 310 311 311 311 311 313 313 314 314 314 314 314 311 310 311 314 316 313 309 309 314 320 321 320 320 321 321 324 329 329 329 331 332 336 341 343 346 347 348 349 348 347 346 345 345 345 344 346 345 343 343 342 340 341 341 340 340 340 339 338 338 338 337 337 337 336 336 336 336 335 333 332 332 330 329 329 329 328 327
306 306 306 307 309 310 310 310 311 311 311 312 314 314 314 315 314 314 313 311 312 311 309 310 312 310 308 313 319 320 318 317 320 323 321 325 330 331 331 331 335 340 340 342 344 346 348 347 346 346 345 345 344 345 346 345 343 342 341 340 340 342 341 340 339 338 338 338 337 337 337 338 337 337 336 335 333 332 332 331 330 329 328 327 326 326
306 306 307 307 308 310 311 311 311 311 312 313 314 315 315 314 314 315 313 310 311 311 308 308 310 309 307 310 315 317 316 316 320 323 321 324 330 332 332 330 332 337 337 337 340 343 346 348 347 345 345 344 344 345 345 344 342 342 341 340 341 342 341 340 338 338 339 338 337 337 338 338 337 336 335 334 333 332 331 331 330 329 328 326 325 325
305 307 307 308 308 310 311 311 311 312 313 313 314 314 314 314 314 314 313 310 310 310 309 309 310 309 308 308 312 316 317 319 322 321 321 322 328 331 332 331 331 334 336 335 336 340 345 348 347 346 345 345 345 345 345 343 343 342 341 341 342 342 340 339 339 339 338 338 337 338 339 337 335 334 333 333 333 332 331 331 330 328 326 325 324 323
304 305 307 308 309 310 311 311 311 312 312 313 314 313 312 312 312 311 311 312 312 311 309 309 311 309 308 310 314 318 318 319 320 319 320 321 324 329 331 331 329 331 335 333 335 343 347 347 347 346 345 345 345 345 344 343 343 343 342 341 342 341 340 339 339 339 338 337 338 339 338 337 334 333 333 333 332 332 331 330 329 327 326 325 324 323
304 305 307 308 309 310 311 311 311 311 312 313 313 312 311 311 312 312 311 311 311 310 310 311 311 309 309 312 316 319 318 319 320 319 322 321 321 328 330 331 330 330 334 334 336 345 348 346 346 347 345 345 345 344 344 343 342 343 342 342 341 341 340 338 339 339 338 338 338 339 338 336 334 333 333 333 332 331 330 330 328 327 326 325 324 323
305 306 306 308 311 311 310 311 311 311 312 313 311 311 311 311 315 316 312 311 311 309 310 311 311 309 309 313 318 319 318 321 321 319 322 322 323 329 331 331 332 332 334 334 337 345 347 346 346 346 345 345 345 344 344 343 342 342 342 342 341 341 340 338 339 340 339 339 339 339 338 336 334 333 333 332 332 331 330 329 328 327 326 325 324 323
306 307 307 309 311 311 311 311 312 312 311 313 313 312 312 311 313 314 311 311 311 309 309 310 312 309 308 313 320 321 320 321 321 320 322 323 325 330 331 331 332 332 332 334 340 345 346 347 347 346 345 345 345 344 343 343 342 341 341 342 341 341 340 339 339 340 340 339 339 338 337 336 334 333 333 333 331 330 330 329 328 327 326 325 324 324
307 308 309 309 311 311 312 311 312 313 311 313 314 312 311 312 312 312 311 311 311 310 310 310 311 312 313 318 322 322 320 319 320 321 321 323 325 329 331 331 331 332 331 335 342 346 347 347 347 346 345 344 344 343 343 342 341 341 341 341 341 341 341 340 340 340 340 339 338 337 337 335 334 334 333 332 331 330 329 329 329 327 326 325 324 323
307 310 311 310 311 311 312 313 312 313 313 313 312 311 312 314 314 312 312 313 312 312 312 310 310 312 314 318 321 320 320 319 320 321 321 324 327 331 334 334 333 333 331 336 343 347 347 347 346 345 344 344 343 343 343 342 341 341 340 341 341 341 340 340 340 340 340 339 338 337 336 335 334 334 333 332 331 330 329 328 328 327 325 324 323 322
309 311 311 311 312 311 311 313 312 312 314 312 311 312 313 315 315 313 312 314 313 313 313 310 309 310 310 313 318 320 321 322 321 321 323 328 329 332 336 335 334 334 333 337 344 346 347 347 346 345 344 343 343 343 343 342 341 341 340 340 341 341 340 340 341 340 340 339 337 336 335 335 334 334 333 332 331 331 329 328 327 326 325 324 323 321
310 312 313 312 312 312 311 312 312 312 313 313 312 313 313 313 312 313 314 315 314 314 314 310 309 310 308 311 317 321 322 323 322 322 323 326 328 331 335 333 333 334 336 340 344 346 346 346 345 345 344 343 343 342 342 342 341 341 341 341 341 340 340 340 341 340 339 339 337 336 335 335 334 334 332 332 331 330 329 327 326 325 324 323 322 320
310 313 315 313 312 313 312 312 312 312 312 312 313 312 313 313 313 313 314 314 313 315 315 312 310 310 311 314 319 321 323 324 324 324 325 327 329 331 333 332 331 335 338 342 346 347 347 345 345 344 344 343 342 342 342 342 342 341 341 341 340 341 341 340 340 340 339 338 337 336 335 334 334 333 332 331 330 328 327 327 326 325 324 322 321 319
311 315 316 315 312 312 312 312 313 313 312 310 311 311 311 312 313 314 313 311 312 314 314 314 313 311 314 320 321 321 325 325 325 328 327 329 330 331 333 333 332 336 341 344 347 347 346 345 345 344 343 342 342 342 342 342 342 342 342 341 341 341 341 340 340 339 338 338 336 336 335 334 333 333 331 330 328 327 327 326 325 324 323 321 319 318
313 315 317 316 314 312 312 312 311 313 312 310 310 310 311 312 311 313 315 312 311 312 312 313 313 311 316 324 322 321 326 324 324 327 328 330 329 329 335 334 335 339 341 344 348 347 346 346 345 344 343 342 341 342 342 342 341 342 342 342 341 341 341 340 340 338 338 337 336 335 334 333 333 332 331 329 328 327 326 325 324 322 321 320 318 317
313 315 316 316 314 312 312 312 312 313 312 312 312 311 313 313 310 311 314 314 311 311 311 311 311 313 321 330 324 324 327 323 324 328 328 330 329 329 333 334 339 342 341 345 348 347 346 345 345 344 342 341 341 341 341 341 341 341 342 342 341 341 340 339 339 338 337 336 335 335 334 333 333 331 329 328 327 326 325 324 323 321 320 319 317 316
312 313 315 316 314 311 312 312 311 313 312 311 312 312 313 313 312 313 315 315 314 312 311 312 312 313 324 333 327 325 327 324 326 328 327 331 334 334 332 333 340 342 340 346 349 349 348 346 344 343 342 342 341 341 341 341 341 341 342 342 341 341 339 338 338 337 336 335 335 334 333 333 332 330 328 327 326 326 325 323 322 321 320 318 317 315
311 313 316 316 314 313 314 313 312 312 312 312 312 313 313 312 314 314 314 316 316 314 311 313 312 313 322 330 325 323 325 324 327 327 327 333 337 337 333 333 338 340 340 346 351 349 345 344 344 342 342 342 341 341 341 341 341 341 341 342 341 340 339 338 337 336 335 335 334 334 334 332 331 329 327 326 325 325 324 322 321 320 319 318 316 314
311 313 316 316 316 315 315 315 313 312 312 312 312 313 313 312 312 313 313 315 315 313 311 312 313 315 322 325 322 323 325 324 326 329 332 336 336 335 336 334 336 340 341 342 344 342 339 342 344 342 343 343 341 342 341 341 341 340 340 341 340 339 338 337 336 335 335 335 334 334 333 331 329 328 327 326 325 324 323 322 321 319 319 317 315 314
311 313 315 316 315 315 314 314 313 312 312 312 311 311 312 313 313 313 314 314 314 313 312 314 317 318 320 322 322 323 325 324 327 330 333 337 338 341 343 340 338 342 341 340 342 343 343 345 344 342 343 342 342 341 341 340 341 340 340 340 340 339 337 336 336 335 335 335 334 334 332 330 328 327 326 325 324 324 322 321 320 319 318 317 315 313
312 312 313 314 314 314 314 313 312 312 312 311 311 311 312 313 315 316 315 315 316 315 313 316 322 319 317 321 323 323 325 325 327 329 329 333 336 339 342 343 341 342 341 341 344 345 346 346 345 343 343 342 342 341 341 340 340 339 339 339 340 339 336 336 336 334 334 334 334 333 331 329 328 326 325 324 324 323 322 321 320 319 317 316 314 313
312 312 313 313 314 313 313 314 313 312 312 312 312 312 313 313 315 316 317 316 317 316 314 318 324 322 320 322 325 327 328 327 327 328 328 330 331 330 335 338 339 339 341 340 341 343 344 345 345 343 343 342 342 341 341 340 339 339 338 339 339 338 336 336 335 334 333 333 333 332 330 328 327 326 324 323 323 323 322 321 320 318 316 315 314 312
312 313 313 313 314 313 313 314 314 312 312 312 312 312 313 313 313 315 316 317 318 318 319 322 325 324 324 326 328 331 333 329 328 328 326 327 327 327 329 333 334 336 338 337 339 342 343 343 343 343 342 342 342 341 341 340 338 338 338 338 339 338 336 335 335 334 333 332 332 331 329 328 327 325 324 323 323 323 322 321 319 317 316 315 314 312
312 313 313 313 314 314 314 314 314 313 311 311 312 313 313 313 314 314 316 319 319 319 323 326 323 321 324 328 329 330 332 329 326 327 327 326 327 328 329 330 332 335 335 334 337 341 342 343 343 342 342 342 342 342 340 339 338 338 338 338 338 337 336 335 334 333 332 331 330 329 328 327 326 325 324 324 323 323 321 320 319 317 315 315 314 312
312 312 313 315 316 316 314 314 315 313 313 313 313 314 314 313 315 315 316 318 319 318 322 323 319 317 321 327 326 325 327 327 324 326 328 327 326 328 330 331 333 335 335 335 337 339 341 341 341 342 342 342 342 341 339 339 338 337 337 338 337 337 335 334 333 332 331 330 329 328 327 326 325 324 324 323 323 323 321 320 318 316 315 315 314 313
312 312 313 316 317 316 314 315 316 315 316 317 316 314 316 315 316 316 316 318 320 320 320 319 318 319 323 325 324 323 324 325 324 326 328 327 326 327 329 329 332 334 335 336 337 338 340 340 340 342 343 342 341 340 339 338 337 337 337 337 336 336 335 333 332 331 331 330 328 327 326 326 325 324 324 323 323 323 321 319 318 316 315 315 314 313
313 313 314 316 317 316 316 317 319 319 319 318 318 316 316 316 316 317 318 318 319 318 318 318 318 321 324 324 323 323 323 323 323 325 326 327 329 329 328 329 331 333 335 337 336 337 339 340 341 342 342 342 341 339 338 337 336 336 336 336 335 335 334 333 331 331 331 329 328 327 326 326 325 324 324 323 322 323 321 319 318 316 314 314 313 313
313 314 314 316 316 316 316 318 321 322 320 318 318 318 316 316 317 318 318 318 317 317 318 319 318 319 321 322 322 322 322 321 321 322 323 327 329 330 328 327 329 332 336 338 337 336 339 341 342 341 341 341 340 339 338 337 336 336 335 334 334 333 333 332 331 331 330 330 329 328 327 326 325 324 323 322 322 323 321 319 318 316 314 314 313 312
313 314 314 315 316 317 317 319 322 322 321 318 319 318 316 317 319 319 318 318 318 318 318 318 318 318 319 320 319 319 320 320 319 321 324 325 327 327 326 325 326 331 338 340 338 337 340 342 342 341 339 339 339 339 337 336 335 335 334 333 333 332 332 332 331 331 330 329 329 328 327 326 325 324 323 322 322 323 321 319 318 315 313 313 313 312
312 314 315 316 317 318 319 320 322 322 321 320 320 320 319 318 319 319 318 318 319 319 318 318 318 318 319 320 319 319 320 319 319 322 324 324 324 325 324 324 326 332 338 341 340 339 340 341 341 340 338 338 339 338 336 335 334 334 333 332 332 331 331 331 330 330 329 329 328 327 326 326 325 324 322 321 321 322 321 319 317 315 313 313 313 312
313 314 316 318 318 318 319 321 323 321 321 323 324 326 325 321 321 322 319 317 319 319 318 318 319 319 320 320 320 321 320 319 318 321 324 323 322 324 324 324 329 334 337 339 339 338 340 341 340 339 338 338 338 336 334 333 333 333 332 332 331 331 331 330 330 329 329 328 327 326 326 325 323 322 321 320 320 321 320 319 316 313 312 313 312 312
314 314 315 317 317 317 319 321 323 321 321 324 326 327 326 323 323 322 317 315 320 320 317 317 318 319 321 321 320 322 320 318 317 321 327 326 323 325 326 325 330 334 336 338 338 339 340 340 340 339 338 338 337 335 333 332 332 332 331 331 331 331 331 331 330 329 329 328 327 326 325 324 322 321 320 319 319 319 320 318 314 313 313 313 312 311
314 314 315 316 316 317 318 320 322 321 321 325 326 324 323 322 322 321 316 317 325 328 323 321 320 319 321 322 323 321 319 317 320 327 332 330 327 328 329 328 328 331 335 337 338 339 340 339 339 338 338 337 337 334 333 332 331 331 330 330 330 331 331 331 330 329 329 328 327 326 325 323 321 320 320 318 318 318 318 316 313 312 312 312 311 311
313 313 315 316 316 318 319 320 321 321 321 325 326 324 323 322 321 320 319 323 330 331 328 326 325 324 323 323 321 318 319 325 331 334 333 330 329 329 329 329 330 331 334 338 338 338 339 338 338 338 337 337 336 333 332 332 331 330 330 330 329 330 330 331 330 329 328 327 326 325 323 321 320 319 319 318 317 316 315 314 312 312 311 310 310 310
314 314 316 317 317 318 319 321 321 321 321 323 326 325 323 323 320 321 326 329 329 329 328 328 328 328 328 327 323 320 325 332 336 336 333 330 332 332 330 331 333 333 335 338 338 338 338 338 338 338 337 336 335 333 331 331 331 330 330 330 330 330 330 330 329 328 327 326 325 323 321 320 319 318 317 316 316 315 314 313 312 311 310 309 309 309
315 316 316 317 318 319 319 320 322 322 322 324 326 326 327 328 326 326 330 331 329 328 329 328 328 328 330 331 328 325 329 333 334 335 333 331 333 335 334 335 336 336 337 338 338 337 337 337 337 337 337 336 334 333 332 331 331 330 330 331 331 331 331 330 330 328 326 324 322 320 319 319 318 317 316 315 315 314 313 312 311 310 310 309 309 308
315 316 316 317 319 320 320 321 321 321 321 323 326 327 328 328 327 328 330 329 329 330 329 329 330 330 330 331 330 326 328 331 331 333 335 336 337 338 337 337 337 337 338 339 338 337 336 336 336 335 335 335 334 333 332 331 331 330 330 331 330 330 330 330 328 326 324 322 320 319 318 318 317 316 315 315 314 313 312 311 311 310 309 309 308 308
315 317 318 318 319 319 320 321 320 319 321 324 327 328 328 327 326 327 329 327 327 329 330 330 332 331 331 333 331 327 326 327 327 330 335 336 335 335 336 336 336 337 337 337 336 336 335 336 335 335 335 334 333 332 332 331 331 330 330 330 330 329 329 328 327 325 322 320 318 317 316 316 315 315 314 314 313 312 311 310 310 309 308 308 307 307
316 319 320 319 319 318 318 319 319 319 323 326 326 327 329 329 327 327 328 327 327 327 327 328 330 330 331 333 331 327 326 327 328 331 336 337 335 335 337 336 335 336 337 336 336 336 335 335 335 335 335 334 333 333 333 332 331 331 331 331 330 329 328 327 326 323 320 318 317 316 315 314 313 312 313 312 312 311 310 309 309 308 307 307 306 306
317 318 319 319 318 318 319 320 321 322 325 326 326 326 328 329 327 326 329 329 327 327 326 327 329 330 330 331 331 329 330 330 330 333 337 337 337 338 339 339 339 338 337 336 335 335 335 335 335 335 334 334 333 333 333 332 331 331 331 331 330 328 326 325 324 321 319 318 317 315 314 313 311 311 311 311 310 310 309 309 308 308 307 306 305 305
319 319 319 319 318 318 320 322 323 323 324 326 326 326 326 327 326 325 328 327 326 327 326 326 328 329 329 330 331 332 332 332 332 333 334 333 334 335 336 338 339 339 338 336 335 335 335 334 334 334 334 333 333 332 332 331 331 331 331 331 330 329 326 325 323 322 320 318 316 315 314 312 311 310 310 310 310 309 308 308 308 307 306 306 305 305
322 321 320 320 320 319 321 323 324 323 324 325 325 324 325 325 325 326 327 326 326 327 326 324 325 326 327 329 330 331 332 332 331 332 332 331 330 330 331 332 332 332 334 335 334 334 335 334 334 334 334 334 333 332 331 331 331 331 331 331 330 329 328 325 323 322 322 319 316 314 313 312 311 310 309 309 309 308 308 308 308 307 307 306 306 306
321 322 322 321 321 321 322 324 325 325 325 325 324 324 324 324 325 326 327 325 325 326 325 325 326 325 325 326 327 329 330 332 332 332 333 334 333 330 330 330 329 329 330 332 333 334 334 334 334 334 334 333 333 332 331 331 331 331 331 330 329 328 327 325 323 322 321 318 315 314 312 311 310 310 309 309 309 309 309 309 308 308 308 307 306 307
321 322 322 322 322 322 323 324 325 325 325 325 324 324 324 325 327 327 325 324 325 324 325 326 326 325 325 324 323 325 327 330 332 332 333 334 334 333 333 332 330 329 329 330 331 332 332 333 334 334 333 333 332 332 331 331 331 331 331 329 328 327 325 323 322 322 321 318 316 313 312 311 311 310 310 310 310 311 310 309 309 309 308 307 307 307
Wind_Speed
11 10 10 12 14 17 20 22 23 22 24 25 23 21 19 19 19 18 18 22 21 15 19 27 28 29 24 19 21 18 13 12 11 8 9 10 11 10 10 9 9 9 10 16 22 23 22 24 27 26 25 24 22 23 25 25 25 24 23 22 21 21 22 23 23 21 20 20 18 16 16 16 14 10 10 10 7 8 8 7 9 11 11 11 11 10
12 11 13 16 19 20 22 24 25 25 27 25 19 18 19 19 17 19 23 26 22 15 18 25 26 27 23 19 20 20 17 13 11 8 7 11 11 8 9 10 11 8 7 12 13 14 19 23 24 24 24 24 23 23 25 26 24 24 23 22 21 22 24 24 24 22 20 21 20 18 17 17 14 11 11 11 10 10 10 9 10 11 11 11 11 10
12 12 16 20 20 21 22 23 26 28 26 21 17 16 15 15 17 20 23 24 21 15 16 23 22 20 23 24 23 22 19 15 16 16 15 15 13 10 10 9 11 9 10 14 12 11 17 21 22 22 22 23 23 23 25 24 25 25 22 23 23 25 26 24 23 23 20 20 19 15 16 16 13 11 12 12 11 10 11 11 10 10 10 10 10 10
10 12 19 21 19 22 23 23 26 25 20 17 16 15 14 18 19 14 17 24 24 18 18 24 22 16 19 23 24 23 22 17 18 20 19 17 16 14 13 10 10 10 13 15 16 16 18 20 21 20 20 22 22 22 23 23 25 24 22 26 27 26 27 24 22 22 19 18 16 13 15 17 14 13 14 12 9 9 10 11 9 9 10 10 10 10
14 15 18 21 22 23 23 23 24 19 15 18 20 17 15 20 21 16 16 22 23 22 23 23 19 13 16 21 21 20 22 21 18 21 21 19 18 16 15 13 11 10 15 19 19 17 16 18 20 20 20 21 21 21 23 24 24 23 25 29 26 25 28 25 22 21 18 19 19 17 18 19 16 13 13 11 10 11 11 10 10 11 10 10 10 10
16 18 17 20 22 23 22 21 22 18 13 16 21 23 22 20 22 22 20 18 16 17 22 22 15 12 18 23 19 16 17 19 15 18 22 21 20 18 15 13 12 11 13 18 20 18 16 18 21 22 22 21 20 21 24 24 23 23 29 31 25 27 29 26 23 21 21 23 23 22 21 19 16 14 14 14 13 13 11 10 12 13 10 9 9 8
12 19 20 20 21 23 22 18 22 22 14 12 18 24 25 24 24 24 23 20 13 13 20 22 16 12 15 19 18 17 18 18 16 15 21 21 20 18 14 11 11 9 11 14 16 17 17 19 19 20 23 23 22 21 22 23 24 26 30 29 27 28 27 25 24 22 23 23 21 21 21 18 16 15 15 15 14 13 12 11 11 12 10 8 9 8
13 19 22 22 21 20 18 16 20 23 16 12 17 22 24 27 27 24 24 19 13 13 17 23 22 14 11 14 18 21 19 19 19 19 20 20 20 19 14 12 11 11 13 12 13 15 16 18 19 21 24 24 24 23 22 24 27 29 31 29 28 26 25 26 27 24 23 22 19 19 18 16 15 15 15 16 15 13 13 12 10 11 11 9 8 7
16 20 21 22 20 15 15 17 20 23 18 14 19 21 23 27 26 24 21 15 15 17 15 19 23 14 10 13 16 19 21 20 21 23 23 20 21 19 15 14 13 13 14 13 14 16 16 18 22 25 25 24 25 24 24 28 29 29 30 30 29 26 24 27 27 25 23 21 20 19 18 16 15 16 16 17 16 14 14 13 11 10 11 10 8 7
14 17 18 19 17 13 16 20 22 22 18 17 22 22 22 23 24 22 18 14 15 16 13 17 22 15 12 14 15 15 18 19 19 19 20 18 19 19 15 15 15 13 14 14 15 17 17 21 25 27 27 26 26 25 27 30 29 28 29 29 29 27 25 26 27 26 24 21 20 19 18 16 16 18 18 17 16 15 15 14 13 11 10 9 8 7
16 16 16 15 14 14 17 20 22 23 21 19 21 21 18 18 19 17 13 13 13 12 14 22 25 19 11 10 12 14 14 15 15 14 14 15 19 19 14 14 15 15 14 14 16 17 19 25 28 28 27 27 26 25 29 33 30 27 27 28 29 26 25 25 26 26 25 22 21 20 19 18 20 20 20 19 18 17 16 15 14 12 10 9 8 8
19 17 13 12 14 16 17 18 20 23 24 20 17 16 13 13 15 13 10 13 12 9 15 24 25 19 10 8 12 16 20 21 17 12 16 19 18 17 15 16 16 15 15 15 16 16 18 21 24 26 27 28 27 26 32 35 30 26 25 27 27 26 26 26 27 27 26 24 22 21 21 21 21 20 20 20 19 18 17 15 14 13 11 9 8 8
16 16 14 12 14 18 16 15 16 19 21 18 15 13 11 9 11 11 11 11 10 9 16 22 22 16 12 12 14 17 22 24 21 16 17 20 19 17 17 17 14 14 14 14 13 15 17 16 18 22 26 28 27 27 32 34 30 27 25 26 27 26 26 28 29 28 27 25 23 23 23 21 20 19 20 21 19 18 17 16 16 14 13 11 10 9
10 13 16 12 10 15 17 12 11 14 16 16 15 12 10 9 8 11 12 10 9 12 18 23 20 14 13 13 16 20 21 21 22 20 17 17 19 17 18 18 15 16 16 14 13 14 16 16 17 21 25 27 27 28 30 30 29 27 25 26 28 27 26 28 29 27 26 25 23 24 24 22 21 21 21 21 20 19 18 17 16 15 14 13 11 10
11 10 12 11 8 11 17 15 12 13 16 16 15 13 11 9 9 10 11 10 10 12 18 22 15 11 12 10 12 18 20 16 15 18 16 14 16 17 18 18 17 17 17 14 12 13 16 18 20 23 24 25 27 28 28 27 27 27 25 27 29 27 27 28 28 28 27 25 24 24 24 23 22 22 22 22 21 20 18 16 16 15 14 13 12 11
13 9 9 15 14 13 15 16 16 15 14 13 15 15 12 10 9 7 8 10 10 9 12 13 9 9 11 11 14 16 17 16 14 17 17 16 16 16 16 17 16 16 16 13 12 14 16 19 22 24 24 25 27 27 27 26 28 27 25 26 28 28 28 28 29 29 28 26 25 25 26 24 23 23 22 22 21 20 18 17 16 15 15 14 12 11
11 8 8 15 17 17 16 16 18 16 12 10 14 14 11 13 11 7 8 9 7 8 7 7 9 10 10 12 14 14 13 18 19 21 16 15 15 14 14 14 14 13 15 14 15 17 18 19 23 25 25 25 27 28 28 28 30 29 27 27 28 28 29 29 29 29 29 26 25 26 26 24 23 24 23 22 22 20 19 19 16 16 17 15 12 12
7 6 8 13 17 18 18 19 19 17 13 9 11 13 12 14 13 8 7 7 7 8 7 10 15 13 11 9 9 13 14 15 19 18 11 12 12 12 13 14 13 13 15 17 19 20 18 19 21 24 25 26 28 30 29 29 30 29 29 29 29 30 31 31 30 29 28 26 25 26 26 25 24 24 23 23 22 21 20 19 17 17 17 14 12 12
8 4 6 11 15 17 17 18 16 17 21 16 12 14 12 11 11 7 5 6 9 9 7 14 19 13 12 9 8 16 17 12 15 15 12 12 11 12 14 15 15 15 14 16 20 20 18 18 20 24 26 27 29 29 28 29 29 28 28 29 31 32 32 31 30 29 28 26 25 26 26 25 25 25 24 23 23 21 20 19 19 18 16 14 13 13
6 2 2 11 15 16 13 13 10 11 19 20 14 14 12 8 7 6 5 5 8 8 7 13 15 10 10 10 10 15 15 13 14 11 12 13 11 10 12 14 14 14 14 15 17 18 17 18 22 26 28 29 30 30 29 30 29 28 28 28 30 31 30 31 30 29 29 27 25 26 26 25 25 25 24 23 23 22 19 17 18 18 16 14 14 14
3 1 1 10 14 15 10 9 10 10 15 16 13 12 11 7 5 5 6 7 8 8 7 9 9 8 8 9 12 13 13 13 12 7 10 10 10 10 11 13 13 12 14 15 16 17 18 18 21 27 29 29 30 29 29 30 30 29 28 28 29 30 30 31 30 29 30 27 26 26 26 26 26 25 24 24 23 21 20 18 17 17 16 15 16 16
1 1 2 7 8 11 10 11 14 15 16 14 10 10 11 9 7 6 7 9 8 7 8 8 7 8 7 6 10 10 12 12 12 9 10 10 13 13 11 13 13 12 13 15 16 17 18 17 20 26 28 28 28 29 29 29 29 29 29 29 30 30 31 31 31 30 29 26 26 27 27 27 26 25 25 25 23 21 21 20 18 18 17 16 17 16
4 2 4 6 7 9 11 13 15 18 18 16 12 11 13 11 9 7 7 8 9 9 10 9 7 6 4 4 9 8 12 14 13 10 10 11 12 12 12 12 12 12 13 14 16 17 16 17 20 25 28 29 29 29 30 29 28 28 28 29 30 30 30 30 31 30 27 26 27 28 28 27 26 27 27 27 25 23 22 21 19 18 18 18 18 17
4 3 4 5 7 8 10 14 17 18 16 15 13 12 13 13 12 10 9 8 7 9 10 7 7 5 3 2 8 9 12 12 9 9 11 9 7 8 12 12 10 12 13 13 14 13 11 15 20 21 24 27 27 28 29 28 28 28 27 27 28 29 29 30 30 28 27 27 28 28 28 27 27 28 28 27 26 24 23 22 20 18 18 18 18 18
2 2 3 3 4 6 9 11 13 14 13 10 11 13 15 18 18 14 10 6 3 7 11 8 6 6 2 2 3 9 13 12 8 9 8 6 6 7 10 11 9 11 13 11 10 9 6 10 17 18 20 24 27 27 28 28 27 27 27 26 28 30 30 30 29 28 27 29 29 28 28 28 29 29 28 28 27 25 23 21 20 19 18 19 19 19
2 2 3 4 4 6 8 8 8 9 9 8 11 16 18 21 22 15 7 3 2 6 11 8 3 6 5 2 1 4 10 12 11 8 4 4 5 4 6 12 12 11 15 15 13 13 12 14 16 16 18 23 26 26 26 27 26 26 27 26 29 31 30 30 29 27 28 29 30 30 29 29 30 29 28 28 27 25 24 21 20 20 19 19 20 20
3 4 5 6 6 6 5 7 10 10 10 11 14 18 18 17 19 14 6 3 5 6 9 5 5 8 7 6 4 4 6 8 8 9 7 5 5 6 4 7 10 11 15 16 16 16 17 16 15 15 17 22 25 25 26 27 25 26 28 27 28 32 31 30 30 29 29 30 31 31 30 29 30 30 29 28 27 26 24 21 20 20 19 20 20 20
4 4 6 7 10 11 9 8 14 16 14 15 17 18 18 18 17 13 7 6 7 6 7 6 9 10 6 7 9 7 7 5 7 9 9 6 5 6 7 7 9 10 11 12 13 14 14 14 14 14 15 20 24 25 26 26 25 27 29 26 27 32 32 30 31 30 30 31 30 30 30 29 29 29 28 29 29 27 23 20 20 20 20 21 21 21
4 4 3 6 10 12 12 13 15 18 16 16 18 18 18 17 15 11 9 11 10 6 5 6 6 9 7 7 7 4 2 5 8 7 7 6 5 6 7 9 10 10 10 11 13 14 14 13 14 14 15 18 24 25 26 27 26 27 29 27 27 31 32 31 31 31 31 30 30 30 30 30 29 28 28 29 29 26 23 20 20 21 21 21 21 21
3 3 3 6 10 10 12 15 14 16 17 17 17 18 17 17 15 13 11 12 12 9 6 5 3 6 7 6 8 5 2 5 6 5 6 7 7 6 6 9 12 12 12 12 13 15 15 14 14 15 15 17 23 26 25 25 26 28 29 27 27 30 32 31 32 32 30 30 31 30 29 29 29 28 28 29 28 26 24 21 20 21 21 21 21 21
3 2 2 4 7 9 11 13 16 17 18 18 18 18 18 18 17 15 12 10 10 9 6 4 4 4 3 9 9 4 3 4 4 4 5 5 7 7 5 7 11 13 13 13 14 14 14 13 14 15 15 17 23 26 24 24 25 28 29 27 26 29 32 31 31 32 31 30 30 30 29 29 29 28 29 28 28 26 25 23 21 21 22 21 21 22
4 2 2 3 5 8 9 12 15 13 12 14 17 17 17 17 14 12 11 9 8 7 6 5 4 4 1 8 11 5 2 3 4 6 5 3 5 8 7 8 10 12 12 13 14 14 13 14 14 15 16 18 23 26 24 24 26 27 28 28 26 28 30 31 31 31 31 30 30 31 32 30 28 29 28 28 28 27 25 24 22 22 22 22 22 22
4 4 2 2 4 6 8 9 11 9 6 7 11 14 15 15 13 12 13 11 9 6 5 6 5 3 4 5 12 10 10 9 9 8 7 5 6 7 7 8 10 12 12 12 14 14 14 13 13 14 16 18 22 25 26 28 28 26 26 28 28 29 30 30 30 30 30 30 29 31 32 30 29 29 27 27 28 27 26 25 23 22 23 22 22 22
5 5 3 2 3 5 6 4 6 6 6 6 7 11 16 16 15 13 12 11 11 9 6 6 5 5 6 3 3 3 5 6 6 6 5 3 3 3 3 5 7 10 12 12 12 12 11 10 11 16 19 20 23 25 26 28 28 25 26 29 30 29 28 28 30 29 29 30 29 29 31 30 28 27 27 27 28 28 27 25 23 24 23 22 22 23
5 4 4 3 4 5 5 2 2 5 7 8 10 10 13 15 14 13 11 11 13 12 10 9 9 9 9 5 3 4 5 7 8 4 4 3 2 3 3 4 4 5 8 12 13 12 10 10 12 16 19 21 24 25 25 26 28 26 27 30 30 28 26 26 27 26 27 29 29 29 30 29 28 28 28 27 28 28 27 24 23 24 24 22 23 23
5 4 4 4 4 4 4 3 3 6 8 10 11 10 10 11 10 10 11 12 14 15 14 13 11 11 9 7 5 6 7 9 9 4 4 4 6 5 5 5 5 5 6 9 12 11 11 13 16 19 20 21 23 24 23 26 28 27 27 29 30 27 26 26 25 24 27 29 29 30 30 29 29 29 28 28 29 29 27 25 24 23 23 23 22 22
5 4 3 3 4 3 3 3 4 6 6 6 5 6 7 8 8 7 6 8 12 13 12 12 12 12 11 9 7 7 8 10 8 3 4 7 9 7 7 7 7 8 7 6 9 13 16 20 22 23 23 22 22 23 25 27 29 27 26 27 27 27 27 27 25 26 28 28 29 31 31 29 29 29 29 28 29 30 27 25 25 23 23 23 23 22
5 4 4 3 3 3 3 4 4 5 3 2 5 11 8 5 5 5 4 6 9 10 10 11 12 13 12 10 8 7 8 9 7 4 6 11 11 8 8 6 6 10 10 7 9 14 20 25 26 26 26 25 22 23 26 29 29 26 24 25 26 26 28 27 26 28 29 29 29 30 30 30 29 29 29 28 28 30 27 25 26 26 23 23 24 22
5 3 4 4 4 4 3 4 5 3 0 3 9 13 13 10 4 2 6 5 5 8 11 13 14 12 10 9 8 8 8 7 7 4 3 6 7 5 4 5 7 10 9 10 12 15 21 26 27 26 26 24 22 25 28 29 28 25 22 23 25 25 26 28 29 29 30 30 30 29 29 29 29 29 29 27 27 30 27 24 26 25 22 23 24 21
6 3 4 5 5 5 4 4 4 2 1 5 8 11 13 11 5 5 9 4 3 4 4 8 11 11 10 9 7 8 8 6 5 2 2 1 4 5 3 3 7 7 6 11 15 20 25 26 26 25 25 24 23 26 29 29 27 24 22 23 24 25 26 27 29 29 29 29 28 27 26 27 28 29 29 27 27 28 27 25 25 24 22 24 23 20
5 3 4 5 5 4 4 4 4 3 2 4 7 11 12 8 4 5 5 0 6 8 7 5 5 5 7 8 7 8 7 4 3 4 2 1 5 7 5 5 9 9 9 10 17 24 26 24 23 22 23 25 25 26 29 28 25 23 24 24 24 24 25 25 27 29 29 28 27 26 25 26 29 29 29 28 28 28 27 27 26 25 24 24 22 21
4 4 4 5 4 4 4 4 3 3 4 7 9 10 7 3 4 2 2 4 6 6 7 6 6 7 6 4 7 6 2 5 6 5 1 2 5 8 8 9 13 14 12 14 23 26 23 23 24 22 22 25 26 27 28 26 23 22 23 23 23 25 26 26 27 28 28 26 26 25 25 27 28 28 28 28 29 30 28 27 27 27 26 25 23 23
4 4 3 2 1 2 3 3 2 2 4 6 8 7 4 3 2 4 5 6 7 7 7 4 4 6 8 7 6 4 6 7 4 4 1 3 5 8 9 10 12 14 14 17 23 25 23 22 24 24 24 25 26 27 27 26 23 22 21 21 22 25 27 29 28 28 28 26 25 25 26 28 30 30 30 31 32 32 30 28 28 27 26 26 24 24
5 4 2 1 1 0 2 3 1 4 5 2 4 3 2 4 6 8 7 4 6 8 7 6 5 4 5 8 8 1 5 5 2 2 3 2 4 7 9 10 10 11 14 17 21 25 25 22 22 24 25 25 26 27 27 25 23 22 20 21 22 22 24 25 26 27 27 26 25 26 28 30 32 32 32 32 32 32 31 29 29 27 25 25 25 25
4 3 1 1 3 3 3 3 5 8 5 4 5 1 2 4 5 10 7 4 6 7 7 7 8 6 5 7 7 3 2 3 3 3 4 3 7 7 9 11 10 9 12 17 21 24 24 22 21 22 22 24 26 26 25 25 24 23 21 22 24 24 23 24 25 26 27 26 25 27 29 30 31 32 32 33 33 32 32 30 29 27 25 24 24 25
5 5 2 3 4 5 6 6 7 7 2 7 5 3 3 2 5 8 7 5 5 5 6 5 8 9 9 9 6 2 1 3 5 4 6 4 8 7 7 10 10 9 11 15 19 22 22 23 23 22 21 23 24 24 24 24 25 24 23 24 27 27 26 26 26 26 26 24 24 26 28 29 30 31 31 31 31 31 31 31 30 28 25 23 24 25
3 4 4 5 4 2 3 1 2 5 6 5 3 3 4 1 3 6 7 5 4 5 5 4 6 7 8 8 5 2 3 4 3 3 5 4 6 6 6 5 5 9 13 16 19 20 20 20 21 22 23 23 24 24 23 23 23 23 22 24 28 29 28 27 27 25 24 23 22 24 27 29 31 31 31 30 29 27 27 28 29 28 25 24 25 24
4 6 6 6 5 3 2 7 7 5 6 6 5 4 3 4 4 5 6 3 6 7 5 5 4 5 7 7 5 5 5 4 2 2 2 1 1 2 2 3 2 1 7 17 21 19 18 18 18 20 21 22 22 23 22 21 22 23 23 24 27 29 28 28 28 25 23 22 21 22 26 29 31 31 30 29 28 27 27 28 28 27 25 26 26 24
4 7 7 7 7 3 3 8 9 4 5 9 8 6 6 7 8 10 4 4 4 6 6 6 6 6 7 7 7 8 8 6 4 3 4 4 2 1 1 3 3 8 5 10 16 15 14 17 19 19 19 20 21 22 21 21 21 23 24 23 26 28 27 28 29 25 22 21 19 18 23 29 30 31 30 28 27 27 27 28 28 25 23 25 25 24
4 6 5 7 7 3 1 5 7 5 3 7 5 5 4 4 9 13 5 7 5 4 6 7 7 7 7 6 7 8 9 9 8 7 6 4 4 7 7 7 6 1 3 6 13 12 12 16 20 21 19 19 21 21 20 20 21 22 22 22 26 29 27 27 28 24 21 21 18 17 22 26 26 27 29 28 26 24 23 24 25 23 21 23 25 24
3 3 3 3 4 6 7 5 4 4 3 4 3 4 3 3 7 7 5 8 7 6 6 7 9 8 7 7 7 7 9 10 8 7 7 7 6 6 9 9 10 8 5 6 4 4 7 12 19 24 21 19 19 19 19 20 21 22 22 23 26 28 28 27 25 22 20 21 19 19 22 25 24 25 27 26 25 24 23 23 23 21 20 21 23 24
Wind_Direction
207 219 215 219 220 215 216 221 227 228 226 223 217 218 219 220 228 220 223 235 219 204 226 227 227 231 223 217 234 237 218 224 245 221 171 193 218 220 211 193 200 204 166 160 163 159 155 153 155 157 165 173 177 177 177 179 179 173 169 170 172 175 176 177 175 171 172 176 175 175 177 177 180 181 179 179 167 151 144 136 138 135 132 132 127 121
205 222 221 218 222 220 219 222 228 231 232 232 227 221 220 222 225 215 220 232 223 217 234 228 228 233 227 225 240 240 221 209 216 210 200 217 218 217 216 199 199 196 136 128 133 138 146 150 154 159 167 177 180 180 179 179 176 171 171 169 169 175 177 179 178 172 172 179 179 177 178 177 179 181 181 174 155 149 148 137 129 124 124 122 118 117
213 219 224 222 220 223 224 222 226 231 231 235 237 229 222 219 223 221 221 224 219 218 233 226 222 230 225 219 230 244 234 208 199 199 203 218 219 215 221 216 200 175 119 109 123 155 161 155 158 163 171 180 182 183 180 177 175 173 169 167 172 179 179 179 181 174 169 178 181 179 176 173 175 180 178 165 154 157 152 143 134 126 126 121 117 118
225 216 219 225 222 220 225 223 223 228 231 233 235 230 225 219 218 217 217 221 221 219 229 231 226 227 230 218 214 231 243 225 196 190 194 206 216 213 213 218 203 169 133 134 156 170 166 159 161 167 173 179 182 183 179 176 178 172 165 172 178 179 179 179 181 176 171 177 180 177 177 174 174 174 169 158 153 158 148 143 141 130 128 131 131 122
231 226 215 220 225 220 222 224 221 223 227 230 231 230 227 222 218 215 212 216 223 224 225 231 233 230 234 229 213 213 238 241 206 188 193 202 210 211 207 205 203 181 150 154 166 164 161 163 164 168 172 179 184 182 179 179 177 167 168 180 178 174 180 177 175 176 170 169 164 158 161 164 166 168 166 162 158 156 149 147 147 134 129 138 141 127
230 233 223 218 223 222 221 223 221 220 222 226 230 229 229 230 225 219 217 214 216 222 223 224 228 228 228 232 224 200 217 242 227 196 196 203 209 210 205 197 197 187 153 153 161 159 163 166 164 166 169 179 187 183 182 181 174 169 178 184 174 174 182 176 172 175 168 165 162 157 159 161 163 167 173 173 165 159 155 152 149 143 139 139 133 124
230 229 230 226 221 221 222 223 221 220 222 224 224 223 229 239 234 220 216 219 220 218 217 220 226 231 227 230 230 212 204 219 235 222 203 201 208 207 203 197 190 167 136 139 154 160 164 165 164 164 168 179 187 184 183 179 174 178 186 186 175 175 179 174 172 174 169 167 166 170 173 172 170 169 172 172 164 159 154 148 147 146 141 133 127 123
226 224 228 231 226 220 221 223 219 219 223 224 216 217 226 235 235 227 220 218 222 224 218 218 225 232 230 225 222 223 220 211 220 229 214 200 200 201 202 198 183 156 141 141 156 166 167 165 163 163 169 179 185 185 183 177 176 182 189 187 176 175 177 175 174 174 174 171 173 179 179 178 176 168 162 159 157 154 149 145 145 146 137 127 134 135
225 226 223 224 228 222 219 221 218 219 226 226 216 216 222 227 231 233 230 224 219 224 222 215 219 224 229 224 213 218 227 222 219 220 218 205 189 192 201 195 179 162 159 159 162 172 171 166 165 164 169 178 183 185 184 179 177 182 188 182 173 173 176 176 176 176 177 179 182 182 180 181 174 161 157 155 153 151 149 149 145 143 135 127 134 136
233 235 228 224 227 224 221 221 218 220 224 224 223 223 218 220 230 234 233 235 227 223 222 216 215 218 227 222 210 212 216 219 221 214 214 206 180 182 198 190 181 173 168 170 171 176 173 165 165 164 166 176 183 185 184 181 179 183 185 175 169 172 174 174 177 177 177 182 187 184 182 179 161 154 160 158 154 152 151 152 148 143 139 136 137 134
242 245 238 229 227 226 225 220 219 221 221 223 226 225 218 213 221 230 231 237 235 224 223 223 215 211 227 224 208 221 226 229 230 206 205 207 178 177 190 184 186 181 170 178 181 178 169 160 162 165 166 175 181 181 182 182 179 180 180 171 169 174 174 174 176 177 181 186 188 185 182 172 158 156 160 159 158 158 157 155 150 146 147 146 142 138
242 243 237 230 229 232 232 222 219 219 218 223 224 221 223 212 206 215 226 230 231 223 222 225 215 201 213 222 201 214 229 240 245 212 205 213 188 177 190 190 192 186 175 186 185 168 159 155 160 166 167 173 177 176 182 183 177 177 178 173 173 174 176 177 178 180 185 189 191 187 179 170 164 159 160 163 163 162 161 155 150 150 152 151 144 143
241 239 236 234 230 233 236 222 212 213 213 219 222 218 221 209 196 204 215 222 228 225 219 219 215 210 222 226 211 213 222 228 234 224 213 209 191 181 191 192 191 186 179 188 182 158 155 157 161 167 169 172 173 174 181 182 176 177 181 179 176 173 177 181 182 183 186 189 191 185 176 171 169 165 164 166 163 163 163 157 156 158 157 157 152 151
234 233 232 239 240 230 232 226 205 204 209 213 217 216 215 205 195 201 205 211 219 220 219 213 209 219 232 223 210 215 225 223 217 221 223 201 183 182 190 190 188 189 186 187 181 160 154 157 162 170 170 169 171 173 179 180 176 178 183 182 178 176 179 184 184 186 188 188 187 181 176 171 170 169 167 166 163 163 163 160 163 164 162 162 159 158
222 223 218 225 247 226 222 236 232 210 205 209 213 215 219 212 201 202 199 200 206 209 215 212 206 215 224 226 225 221 226 229 217 220 220 191 176 181 186 190 191 194 192 183 173 159 154 157 162 167 168 168 170 171 175 177 177 181 184 183 183 181 180 183 186 188 188 186 184 181 177 173 171 170 167 166 165 164 164 165 167 167 165 164 161 160
220 224 207 208 229 232 221 237 243 223 206 205 211 215 219 211 204 211 210 208 210 210 211 210 211 220 216 223 236 229 217 216 231 239 219 180 174 181 181 187 191 193 191 174 162 161 156 157 162 164 166 170 171 171 173 176 178 183 185 184 184 183 181 182 186 188 186 183 181 178 174 173 172 171 167 165 167 167 166 167 167 165 164 162 161 162
214 218 212 203 219 234 234 239 233 216 201 198 210 217 213 206 207 210 215 220 224 219 208 201 212 224 228 221 216 222 214 202 222 244 220 172 174 180 172 179 186 188 182 165 158 163 159 159 163 163 164 168 173 175 175 177 181 184 184 184 185 182 182 185 187 187 183 180 178 174 171 172 171 171 168 165 167 169 169 169 167 160 159 160 160 161
230 207 208 208 215 224 235 244 234 218 212 201 200 208 203 206 212 207 203 208 214 216 203 205 215 215 225 226 194 210 224 205 214 230 197 158 178 180 165 174 187 188 177 162 158 161 160 160 160 161 164 169 176 178 176 177 182 184 184 186 185 182 183 186 186 183 180 178 176 172 171 171 170 168 166 165 166 166 164 165 164 159 158 163 165 166
274 237 218 235 227 214 223 236 231 225 227 219 201 204 207 210 211 204 202 197 200 211 202 208 218 217 216 216 189 204 212 204 217 215 171 166 192 181 167 176 186 184 173 162 159 159 160 159 159 162 166 171 176 178 177 177 182 184 186 187 186 184 183 183 182 180 178 177 175 172 171 170 167 165 163 163 164 163 160 158 157 156 158 164 171 173
289 247 257 274 242 209 210 227 225 222 221 216 207 207 214 222 212 199 209 207 199 205 208 209 215 221 216 207 202 202 189 193 223 210 165 177 195 184 173 177 184 180 169 161 157 158 158 159 162 165 168 173 176 177 176 177 182 185 185 186 186 183 180 179 179 178 176 175 174 172 170 169 167 163 161 160 159 162 164 162 160 160 160 166 173 174
326 62 313 281 241 205 203 219 214 210 207 207 209 206 206 215 224 205 202 216 213 203 208 210 212 220 209 201 217 204 170 186 219 192 159 178 194 191 178 176 182 174 161 157 157 161 159 156 162 164 167 173 175 177 177 177 181 183 182 183 183 180 177 178 178 175 172 171 172 171 169 169 166 163 162 161 159 163 167 167 165 163 164 170 174 175
84 78 255 279 240 204 208 215 210 211 208 203 211 215 207 205 219 213 199 213 223 214 209 208 216 219 191 195 229 200 159 187 207 173 163 186 198 194 179 175 175 163 157 155 154 159 160 159 162 161 163 170 175 179 179 177 180 183 182 181 180 178 177 175 172 170 170 169 169 168 167 167 165 163 162 162 163 167 168 167 164 161 163 171 175 176
147 166 229 274 257 213 207 213 219 224 215 203 210 220 208 204 216 216 199 207 219 215 208 206 218 213 163 201 229 186 160 188 198 184 183 193 196 184 166 164 158 151 153 148 149 159 162 161 160 159 164 171 176 180 178 177 179 182 183 182 180 179 175 170 167 166 166 167 167 166 166 165 165 164 161 161 166 169 167 166 163 160 165 171 174 175
154 181 223 268 259 217 207 217 225 231 223 207 208 213 203 200 211 216 205 200 215 215 201 202 213 191 110 258 225 175 160 170 181 197 199 189 182 167 159 157 147 152 153 140 143 152 153 158 159 161 168 172 175 179 178 177 179 180 183 182 179 177 172 167 167 166 165 165 164 165 168 167 166 164 162 163 169 170 166 163 159 160 168 172 172 174
179 187 206 246 230 197 202 216 218 223 227 216 206 210 207 203 209 221 218 202 229 227 206 206 210 176 118 328 224 162 156 155 169 199 200 178 170 170 166 163 157 157 147 127 121 120 134 173 171 168 170 170 173 178 177 178 178 178 181 180 174 172 169 167 169 168 167 166 165 168 171 169 167 164 164 167 171 171 166 160 157 163 172 173 172 173
199 150 178 223 219 198 196 203 204 208 218 220 215 214 211 207 210 219 230 209 221 232 221 218 183 146 143 144 194 170 161 161 171 169 125 102 141 154 172 170 166 157 144 138 142 151 170 188 181 171 169 169 172 175 175 178 177 174 179 179 173 170 169 168 169 169 167 167 169 171 171 169 167 166 167 169 170 167 163 157 157 166 173 173 173 173
205 183 210 231 242 249 222 199 203 209 209 210 215 218 218 221 221 217 222 219 199 225 241 225 128 129 149 156 168 212 198 176 161 140 116 95 91 66 68 140 146 146 145 147 155 164 172 179 177 172 168 168 171 172 174 176 173 171 177 178 172 169 169 168 168 168 167 168 170 171 171 168 165 167 171 171 166 163 159 156 160 169 175 175 173 172
248 218 221 243 255 266 274 243 217 214 215 211 211 216 220 229 228 213 208 214 203 217 242 208 137 125 154 182 174 193 214 172 132 142 157 153 114 88 76 91 111 127 138 141 148 158 167 173 171 169 169 169 169 170 173 175 172 171 176 177 171 168 169 169 168 166 167 168 168 169 170 168 167 169 172 170 165 161 157 158 166 173 174 174 173 171
270 260 237 267 264 260 276 273 234 211 213 215 212 214 216 221 224 216 210 213 213 223 242 222 159 140 173 194 154 139 206 148 130 143 153 143 144 143 134 131 134 145 158 157 156 163 173 176 170 167 174 173 169 170 171 172 171 170 174 178 173 168 168 169 167 166 167 168 169 169 168 169 171 173 171 168 164 160 158 162 171 173 173 174 174 171
240 260 241 274 275 265 273 284 262 224 214 213 212 216 216 217 222 223 216 216 224 238 256 266 230 180 169 130 95 65 49 112 112 112 123 140 159 161 164 161 155 162 178 175 170 174 177 178 173 171 176 174 171 171 168 168 170 169 171 176 173 168 169 168 165 165 166 167 168 169 167 168 172 172 168 166 163 160 160 165 171 172 173 175 173 172
185 216 232 280 287 277 269 279 276 247 220 210 211 216 217 214 216 220 221 226 236 238 246 273 264 236 135 100 92 52 31 80 99 133 155 169 160 154 185 185 164 171 186 185 179 179 179 180 177 173 177 177 172 171 166 163 167 168 169 171 169 167 169 167 162 162 164 164 166 171 172 171 171 168 164 165 164 161 163 167 171 173 175 175 173 174
186 229 311 315 285 275 265 268 276 264 233 220 217 215 217 215 209 215 223 233 246 242 246 251 240 262 277 122 123 137 204 197 201 206 213 212 168 166 184 190 178 181 189 188 183 183 183 185 181 175 179 178 171 170 167 160 163 169 170 168 165 164 164 165 162 160 162 164 167 172 176 174 168 164 163 166 167 165 165 168 172 174 176 176 175 175
215 232 266 286 270 268 262 272 292 295 280 253 226 211 216 217 208 211 216 220 231 243 254 242 214 259 292 160 147 168 200 205 207 209 208 207 198 183 179 188 190 189 191 189 184 184 185 187 180 173 176 176 169 171 170 162 164 171 169 163 162 161 159 160 161 162 163 166 168 172 175 172 165 163 165 167 170 169 167 169 174 175 176 177 175 175
233 240 238 262 280 274 265 298 324 287 247 254 251 221 215 215 210 213 215 209 214 230 261 261 233 257 285 257 164 207 230 230 232 210 178 174 182 159 173 207 198 190 189 178 173 184 189 182 169 164 168 172 171 171 169 163 165 168 162 158 160 163 161 159 160 163 166 168 170 171 171 168 165 166 167 168 172 172 168 171 177 175 175 177 175 175
219 248 250 258 272 275 276 287 303 263 239 253 271 249 225 222 216 211 216 214 209 216 237 246 237 245 257 260 278 291 283 279 273 235 151 143 163 160 196 220 201 200 194 169 165 185 192 172 158 159 165 171 171 169 166 163 164 162 158 157 158 162 166 164 163 165 168 170 172 170 170 170 169 169 171 172 175 172 170 176 178 172 173 178 177 176
198 236 255 271 276 279 283 255 248 282 267 246 251 249 236 235 227 207 208 214 208 205 213 223 233 246 254 253 247 253 265 270 266 240 168 198 211 190 195 212 202 203 197 168 167 181 180 162 155 157 163 169 169 166 162 160 159 157 157 158 157 160 166 167 168 170 169 171 172 170 171 173 172 171 173 174 175 173 173 176 173 168 173 178 176 177
196 219 240 267 280 275 283 280 278 289 267 220 236 264 241 229 230 220 209 212 210 205 204 209 220 233 241 244 237 235 251 258 254 225 192 231 234 202 192 214 199 170 151 144 164 169 159 151 151 155 161 166 166 162 158 156 156 154 155 157 158 161 166 169 174 175 173 175 175 172 173 174 174 174 174 172 173 175 175 174 171 171 174 176 175 176
195 219 241 250 272 280 297 308 287 270 238 196 318 317 309 281 245 233 238 226 209 203 202 207 215 222 227 233 232 234 248 253 247 220 210 223 223 198 194 205 165 143 138 143 165 161 147 145 151 158 162 165 164 159 156 157 157 157 158 159 160 163 166 171 177 177 178 179 177 172 172 173 174 173 172 171 172 174 173 169 168 172 174 175 174 174
194 219 268 270 272 277 291 306 292 285 291 287 307 318 314 308 311 226 222 223 205 206 210 213 218 218 217 222 222 225 239 242 232 229 231 214 190 165 184 183 136 127 143 164 168 153 139 142 149 153 157 162 161 157 156 158 159 161 163 164 166 168 170 174 178 178 178 179 177 174 172 173 174 173 171 169 170 173 173 165 162 168 172 173 173 172
211 220 277 273 270 279 291 300 294 290 264 268 297 318 308 297 299 226 209 198 3 325 254 227 226 220 212 212 215 221 230 233 223 200 50 96 136 122 125 139 119 124 170 184 167 146 134 137 144 146 152 161 160 155 155 157 159 164 167 168 172 176 178 178 177 176 176 177 177 177 175 174 175 173 170 168 166 168 170 164 162 167 170 170 172 173
222 227 264 268 275 291 298 303 296 268 264 287 301 302 292 275 244 220 207 200 350 342 347 337 299 262 225 208 210 224 223 195 132 99 85 182 162 155 168 151 137 161 196 177 144 135 132 136 141 145 154 162 160 155 157 161 163 166 168 170 175 182 184 179 174 173 176 176 175 177 178 177 175 172 169 167 162 161 163 164 165 167 167 168 172 172
219 226 249 259 273 293 289 294 301 277 296 323 315 297 284 242 206 219 302 321 324 336 343 348 356 350 329 253 221 221 157 103 101 95 88 230 169 165 182 166 151 165 175 147 133 135 140 142 145 150 157 161 160 158 160 165 166 169 173 177 180 183 182 179 176 173 173 173 172 174 175 173 171 169 165 163 160 159 160 163 165 166 165 167 170 170
186 209 246 255 284 323 283 274 314 293 274 307 327 332 358 29 338 325 326 323 341 350 340 351 19 358 340 315 257 192 99 83 78 69 350 243 175 160 168 163 156 158 153 140 138 144 148 149 153 158 161 161 161 161 165 170 170 174 182 185 185 182 179 179 178 172 168 168 169 169 169 169 170 168 165 163 163 161 160 162 164 165 165 167 169 170
168 193 242 203 135 315 263 236 274 281 267 315 28 17 30 21 336 314 315 345 3 351 346 2 7 350 334 317 297 268 104 104 80 12 301 226 151 154 157 149 151 155 149 144 145 146 148 153 160 161 159 163 166 166 169 174 173 175 183 185 185 184 178 174 170 163 159 162 163 163 165 169 171 170 166 164 163 161 161 164 165 165 165 167 169 169
155 170 272 259 208 237 257 231 243 263 278 49 59 75 74 38 315 292 303 16 27 6 7 1 345 348 339 304 288 268 188 137 88 341 298 167 153 180 172 149 151 164 156 148 146 145 146 151 159 160 160 165 170 170 173 176 173 173 178 180 182 183 178 171 165 159 157 159 160 161 163 164 167 169 167 165 164 162 162 164 165 166 167 166 166 166
170 159 208 254 228 235 245 233 246 270 24 77 75 76 79 43 295 303 330 15 21 12 27 8 348 2 356 324 306 287 278 98 85 339 296 191 172 182 162 146 156 171 165 149 143 145 149 154 158 159 159 166 173 178 180 179 174 173 175 175 174 175 173 169 164 156 153 155 157 160 162 160 162 166 167 166 166 165 165 166 167 168 169 168 167 167
185 168 230 242 229 247 258 220 347 0 41 68 78 86 91 48 329 328 324 329 338 354 34 29 5 20 12 344 340 7 24 65 80 293 274 205 166 145 129 137 162 172 163 150 145 149 153 157 162 162 161 169 177 179 180 179 175 174 176 173 168 167 166 166 162 152 148 150 154 159 163 164 164 165 166 166 167 166 167 170 171 170 171 173 172 173
340 336 305 264 249 253 30 36 27 35 65 57 34 34 34 16 348 283 267 307 341 339 9 30 23 46 37 6 14 53 65 71 65 288 265 160 83 77 78 60 13 266 144 137 147 160 157 158 169 169 164 167 170 171 175 179 178 177 180 179 172 166 164 165 163 158 153 152 154 159 166 168 168 167 167 167 168 169 170 174 175 176 179 181 179 181
276 301 318 315 301 284 40 15 351 341 79 61 29 358 5 8 324 286 269 77 11 331 359 14 19 56 53 23 24 46 59 66 60 69 106 118 123 155 34 66 19 331 2 122 149 163 158 162 172 169 162 161 164 168 176 180 180 181 183 181 175 170 167 163 161 161 159 157 157 163 168 169 169 169 169 169 172 175 178 181 182 182 186 188 188 190
265 290 328 331 318 304 352 356 340 328 39 63 31 329 355 8 301 295 337 60 43 13 26 14 14 43 53 47 47 49 49 44 32 36 57 81 128 149 155 147 137 25 308 187 174 169 170 175 167 155 155 161 163 170 177 177 178 182 182 176 171 171 168 160 156 158 162 162 162 165 165 165 168 170 171 171 173 176 181 186 188 189 190 192 193 195
288 299 319 319 316 310 312 333 359 341 4 85 144 247 247 217 255 285 17 43 26 27 37 30 33 35 23 28 43 49 58 59 42 31 32 20 32 94 127 137 136 148 199 225 205 177 196 185 157 145 151 162 165 172 179 177 178 182 180 173 170 170 166 156 153 157 161 164 168 170 168 167 169 171 173 174 175 175 174 175 182 189 191 191 193 195